Regional Weather Roundup
Issued by NWS

Home | Current Version | Previous Version | Graphics & Text | Print | Product List | Glossary On
Versions: 1 2 3 4 5 6 7 8 9 10 11 12 13 14 15 16 17 18 19 20 21 22 23 24 25 26 27
000
ASUS45 KBOI 300610
RWRID

IDAHO REGIONAL WEATHER ROUNDUP
NATIONAL WEATHER SERVICE BOISE ID
1200 AM MDT MON MAY 30 2016

NOTE: "FAIR" INDICATES FEW OR NO CLOUDS BELOW 12000 FEET
WITH NO SIGNIFICANT WEATHER AND/OR OBSTRUCTIONS TO VISIBILITY

IDZ012-014-300700-
SOUTHWEST IDAHO


CITY           SKY/WX    TMP DP  RH WIND       PRES   REMARKS
BOISE          PTCLDY    65  36  34 NW8       29.99R
CALDWELL       CLEAR     65  42  43 NW12      30.01R
MOUNTAIN HOME  PTCLDY    62  40  44 W8        29.98R
$$

IDZ016-017-300700-
SOUTHCENTRAL IDAHO


CITY           SKY/WX    TMP DP  RH WIND       PRES   REMARKS
BURLEY         PTCLDY    59  44  57 S13       30.00S
JEROME         CLOUDY    60  47  61 S6        30.02S
TWIN FALLS     CLEAR     55  45  68 S14       30.02R
$$

IDZ019>023-300700-
SOUTHEAST IDAHO


CITY           SKY/WX    TMP DP  RH WIND       PRES   REMARKS
IDAHO FALLS    PTCLDY    58  42  55 S9        30.03F
POCATELLO      CLOUDY    59  40  49 CALM      30.03R
REXBURG        CLEAR     58  39  49 S13       30.02S
$$

IDZ006-010-011-018-031-032-300700-
CENTRAL IDAHO MOUNTAINS


CITY           SKY/WX    TMP DP  RH WIND       PRES   REMARKS
MCCALL         CLEAR     51  39  63 NW5       30.09R
HAILEY         PTCLDY    50  36  57 NW7       30.08S
STANLEY          N/A     40  26  57 CALM      30.14R
SALMON         CLOUDY    55  36  47 S6        30.00R
CHALLIS        CLEAR     54  25  32 CALM      30.04R
$$

IDZ002-004-006-007-026-300700-
NORTHERN IDAHO


CITY           SKY/WX    TMP DP  RH WIND       PRES   REMARKS
LEWISTON       PTCLDY    64  37  36 W7        30.05R
LOWELL           N/A     57  52  83 CALM      30.05R
COEUR D`ALENE  PTCLDY    54  36  50 NE5       30.03R
MULLAN PASS    CLOUDY    45  32  60 VRB7      30.07S
$$




USA.gov is the U.S. government's official web portal to all federal, state and local government web resources and services.